NOAA 16 DEB, 41281

Orbit data source: Space-Track

NOAA 16 DEB, 41281 is space debris in SSO originally from a launch on Thu, 21 Sep 2000 UTC launched from the Air Force Western Test Range (AFWTR). Debris objects in space refer to the collection of defunct objects orbiting the Earth. Examples of debris include non-operational satellites, rocket bodies, and fragments generated from explosions, collisions, or faulty payload assembly.

Loading next visibility...
Identifier
41281, 2000-055GH
Orbit
SSO
Country
Flag of USUS
Related business
Manufacturer
Unknown
Mission
Spacecraft
Bus & Motor
Unknown
Mass
Unknown
Launch date (UTC)
2000-09-21 (26 years ago)
Launch vehicle
Unknown
Launch site
Air Force Western Test Range (AFWTR)
Object type
Payload
Rocket body
Debris
Shape & HBR
Unknown shape, 0.1 m
Radar Cross Section
Small (<0.1 m²)

Expand to show TLE details & history
Last TLE update: 7 hours ago

TLE from 7 hours ago
0 NOAA 16 DEB
1 41281U 00055GH  26220.13950588  .00002078  00000-0  85309-3 0  9992
2 41281  98.8069 287.6032 0031283  68.4958 291.9553 14.27895179546881
Epoch: 2026-08-08T03:20Z
TLE epoch observation values (Epoch: 2026-08-08T03:20:53.308Z)
Latitude
Longitude
-79.27405°
Altitude
793.362 km
Speed
7.461 km/s
True Right ascension
19h 10m 24s
True Declination
0° 00' 00"
Sunlit
Object was in full shadow at epoch
Visualization orbit readout
Latitude
Unknown
Longitude
Unknown
Altitude
Unknown
Speed
Unknown
Apparent Right ascension
Unknown
Apparent Declination
Unknown
Sunlit
N/A
Visualization observer readout
Local Sidereal Time
00:48:59
Azimuth
Unknown
Elevation
Unknown
Doppler factor
Unknown
Orbital elements
Apogee altitude
818.37 km
Perigee altitude
773.485 km
Semi-major axis
7,174.065 km
Eccentricity
0.00313
Inclination
98.8069°
RAAN
287.6032°
Arg. of periapsis
68.4958°
True anomaly
291.62234°
Mean anomaly
291.9553°
Eccentric anomaly
291.78887°
Mean motion
3.57187 °/min
Orbital period
100.79 mins
BSTAR
0.00085309
Loading maneuver chart data...
Computing Atmospheric mass density...

Documentation

Showing up to 5 results
|